Flag for Kazakhstan Weather past 2 weeks in Astana, Kazakhstan

Now
64 °F

Partly sunny.


Feels Like: 64 °F
Forecast: 37 / 65 °F
Wind: 10 mph from Northwest

Location: Astana

Current Time: Sep 3, 2015 at 3:29:16 PM

Latest Report: Sep 3, 2015 at 3:00 PM


Visibility: N/A

Pressure: 29.86 "Hg

Humidity: 32%

Dew point: 34 °F

Location of AstanaLocation

Historic Weather in Astana — Graph

°F

Astana temperature yesterday

Maximum temperature yesterday: 63 °F (at 2:30 PM)
Minimum temperature yesterday: 50 °F (at 4:30 AM)
Average temperature yesterday: 56 °F

Past Weeks' High & Low Weather Summary

 TemperatureHumidityPressure
High86 °F (Aug 31, 2:00 PM)100% (Sep 3, 7:00 AM)30.18 "Hg (Sep 3, 7:00 AM)
Low39 °F (Aug 28, 1:30 AM)12% (Aug 31, 2:30 PM)29.53 "Hg (Aug 25, 3:30 PM)
Average60 °F51%29.84 "Hg
* Reported Aug 19 2:00 PM — Sep 3 2:30 PM, Astana, Weather by CustomWeather, © 2015

Note: Actual official high and low records may vary slightly from our data, if they occured in-between our weather recording intervals... More about our weather records

Advertising

Astana weather history for previous 24 hours

 ConditionsComfort  
Time TempWeatherWind HumidityBarometerVisibility
2:30 PM
Thu, Sep 3
64 °FPartly sunny.10 mph32%29.86 "HgN/A
2:00 PM64 °FPartly sunny.10 mph30%29.86 "HgN/A
1:30 PM63 °FPartly sunny.10 mph34%29.86 "HgN/A
1:00 PM63 °FPartly sunny.8 mph42%29.86 "HgN/A
12:30 PM63 °FPartly sunny.10 mph45%29.83 "HgN/A
12:00 PM63 °FScattered clouds.8 mph52%29.83 "HgN/A
11:30 AM61 °FBroken clouds.8 mph59%29.83 "HgN/A
11:00 AM59 °FBroken clouds.10 mph63%29.83 "HgN/A
10:30 AM57 °FBroken clouds.8 mph72%29.83 "HgN/A
9:30 AM54 °FBroken clouds.8 mph88%29.83 "HgN/A
9:00 AM52 °FMore clouds than sun.8 mph88%29.83 "HgN/A
8:30 AM50 °FFog.6 mph94%29.83 "Hg2 mi
8:00 AM48 °FMostly cloudy.8 mph94%29.80 "Hg0 mi
7:30 AM50 °FPartly sunny.8 mph94%29.80 "Hg0 mi
7:00 AM48 °FPassing clouds.6 mph100%29.80 "Hg0 mi
6:30 AM48 °FPassing clouds.3 mph94%29.80 "Hg0 mi
6:00 AM48 °FPassing clouds.3 mph94%29.80 "HgN/A
5:30 AM50 °FPassing clouds.1 mph94%29.80 "HgN/A
5:00 AM50 °FPassing clouds.1 mph94%29.77 "HgN/A
4:00 AM52 °FSprinkles. Mostly cloudy.6 mph88%29.77 "HgN/A
3:30 AM52 °FSprinkles. Mostly cloudy.6 mph94%29.77 "HgN/A
3:00 AM52 °FSprinkles. Mostly cloudy.6 mph94%29.77 "Hg6 mi
2:30 AM52 °FSprinkles. Mostly cloudy.3 mph94%29.77 "Hg6 mi
2:00 AM52 °FSprinkles. Mostly cloudy.8 mph94%29.77 "Hg6 mi
1:30 AM52 °FSprinkles. Mostly cloudy.8 mph94%29.77 "Hg6 mi
1:00 AM52 °FSprinkles. Mostly cloudy.3 mph94%29.77 "Hg6 mi
12:30 AM52 °FSprinkles. Mostly cloudy.6 mph94%29.77 "HgN/A
12:00 AM54 °FSprinkles. Mostly cloudy.6 mph88%29.77 "Hg4 mi
11:30 PM
Wed, Sep 2
54 °FSprinkles. Mostly cloudy.8 mph88%29.77 "HgN/A
11:00 PM54 °FSprinkles. Mostly cloudy.6 mph82%29.77 "HgN/A
10:30 PM54 °FPassing clouds.6 mph82%29.77 "HgN/A
9:30 PM55 °FPartly cloudy.8 mph77%29.77 "HgN/A
9:00 PM55 °FPartly cloudy.8 mph77%29.77 "HgN/A
8:30 PM55 °FBroken clouds.10 mph77%29.77 "HgN/A
8:00 PM57 °FBroken clouds.10 mph72%29.77 "HgN/A
7:30 PM57 °FBroken clouds.10 mph72%29.77 "HgN/A
7:00 PM57 °FBroken clouds.8 mph72%29.77 "HgN/A
6:30 PM59 °FBroken clouds.10 mph63%29.77 "HgN/A
6:00 PM59 °FBroken clouds.10 mph63%29.77 "HgN/A
5:30 PM61 °FBroken clouds.10 mph59%29.77 "HgN/A
5:00 PM61 °FBroken clouds.10 mph55%29.77 "HgN/A
4:30 PM61 °FBroken clouds.10 mph55%29.77 "HgN/A
4:00 PM61 °FBroken clouds.10 mph52%29.77 "HgN/A
3:30 PM61 °FSprinkles. Broken clouds.8 mph55%29.77 "HgN/A
3:00 PM61 °FPartly sunny.8 mph52%29.80 "HgN/A
Weather by CustomWeather, © 2015

See weather overviewHow to use our weather pages